Regional Weather Roundup
Issued by NWS

Home | Current Version | Previous Version | Graphics & Text | Print | Product List | Glossary Off
Versions: 1 2 3 4 5 6 7 8 9 10 11 12 13 14 15 16 17 18 19 20 21 22 23 24 25 26 27 28 29 30 31 32 33 34 35 36 37 38 39 40 41 42 43 44 45 46 47 48 49 50

000
ASUS43 KLSX 161357
RWRMO

WEATHER SUMMARY FOR MISSOURI
NATIONAL WEATHER SERVICE SPRINGFIELD MO
900 AM CDT WED AUG 16 2017

NOTE: "FAIR" INDICATES FEW OR NO CLOUDS BELOW 12,000 FEET WITH NO
       SIGNIFICANT WEATHER AND/OR OBSTRUCTIONS TO VISIBILITY.
       CURRENT SKY AND/OR WEATHER CONDITIONS ARE NOT AVAILABLE FOR
       CHILLICOTHE AND FARMINGTON.

MOZ001>031-035>038-043-044-053-054-161500-
...NORTHERN AND WESTERN MISSOURI...

CITY           SKY/WX    TMP DP  RH WIND       PRES   REMARKS
KANSAS CTY INT CLOUDY    74  73  97 S12       29.85S
LEE`S SUMMIT   PTSUNNY   73  72  96 E3        29.88R
ST JOSEPH      CLOUDY    75  73  93 S9        29.84R
CHILLICOTHE      N/A     74  74 100 VRB6      29.88S

$$
MOZ066>068-077>081-088>096-101>105-161500-
...SOUTHWEST MISSOURI...

CITY           SKY/WX    TMP DP  RH WIND       PRES   REMARKS
SPRINGFIELD    CLOUDY    76  74  93 S14       29.94R
JOPLIN         MOSUNNY   82  75  79 S14G23    29.89S
BRANSON        CLOUDY    73  73 100 S3        29.98R

$$
MOZ032>034-039>042-045>050-055>058-069>072-161500-
...CENTRAL MISSOURI...

CITY           SKY/WX    TMP DP  RH WIND       PRES   REMARKS
COLUMBIA       NOT AVBL
JEFFERSON CITY CLOUDY    76  73  91 SE5       29.91S
ROLLA          CLOUDY    75  75 100 S8        29.97R
SEDALIA        MOSUNNY   75  75 100 SE10      29.91F
WARRENSBURG    LGT RAIN  70  68  94 E5        29.87F

$$
MOZ051-052-059>065-161500-
...EAST CENTRAL MISSOURI...

CITY           SKY/WX    TMP DP  RH WIND       PRES   REMARKS
ST LOUIS INTL  CLOUDY    78  73  84 S10       29.96R

$$
MOZ072>076-082>087-097>100-106>115-161500-
...SOUTH CENTRAL AND SOUTHEAST MISSOURI...

CITY           SKY/WX    TMP DP  RH WIND       PRES   REMARKS
CAPE GIRARDEAU CLOUDY    77  74  90 S6        29.98R
POPLAR BLUFF   CLOUDY    78  76  93 S7        29.98R
WEST PLAINS    CLOUDY    77  74  90 S6        30.00R

$$



USA.gov is the U.S. government's official web portal to all federal, state and local government web resources and services.